GFSMA_925_rhum_234.txt.gz
RH
100 95 92 84 67 56 54 67 77 75 60 65 75 72 68 65 62 60 70 84 90 91 93 96 96 98 97 96 94 92 91 89 88 90 89 86 86 84 83 83 83 83 84
99 100 100 96 98 72 55 57 72 76 62 62 73 74 68 68 64 62 68 84 84 89 91 92 91 92 90 97 97 98 92 92 93 95 94 90 91 93 92 88 89 87 88
100 100 100 100 98 73 53 55 72 74 65 63 70 72 70 68 66 67 71 78 84 88 88 85 87 92 96 90 90 89 89 94 96 96 89 92 96 92 87 87 86 89 87
99 100 100 100 99 77 61 58 69 76 66 63 67 72 72 70 68 70 73 77 79 85 91 89 92 90 92 94 98 97 95 92 92 93 87 87 91 92 91 88 84 90 89
96 100 100 100 98 80 72 53 63 68 66 68 67 74 74 73 70 72 76 76 73 77 85 92 88 86 89 90 88 90 95 91 94 90 94 92 92 88 94 91 92 89 90
100 100 100 100 100 95 83 67 56 72 64 63 77 82 82 79 77 75 72 76 75 76 79 86 85 87 85 89 93 93 87 89 94 89 90 92 94 93 93 92 93 88 89
100 100 100 100 100 98 95 83 69 74 78 69 80 96 97 90 86 82 77 78 77 75 76 77 81 84 88 89 90 91 89 88 89 91 94 91 93 93 92 91 92 90 89
100 100 100 100 99 100 100 89 75 81 80 72 76 92 99 98 98 93 85 82 79 77 79 78 78 82 82 83 87 88 92 92 90 90 91 92 91 90 89 89 90 89 87
100 100 100 100 100 99 100 98 84 66 71 87 65 70 99 98 98 92 96 89 84 82 80 80 81 80 81 82 81 88 85 85 88 90 90 90 90 90 89 90 90 85 85
100 100 100 100 99 100 100 98 88 70 66 84 76 53 58 74 94 99 97 94 90 87 84 82 82 80 81 80 78 75 83 86 88 88 90 91 90 91 90 89 87 84 83
99 100 100 100 100 100 100 100 96 80 66 68 77 71 72 75 74 93 98 100 99 96 89 83 79 79 81 80 78 76 75 80 86 88 86 88 89 89 89 93 81 85 87
100 100 100 100 100 100 100 99 96 86 78 67 76 71 66 76 84 84 97 96 94 100 99 90 85 81 80 79 77 75 74 76 76 85 86 82 87 87 88 85 93 93 91
100 100 100 100 100 100 100 100 100 92 84 75 70 72 74 70 60 66 62 97 96 95 96 95 88 84 83 79 77 74 75 76 74 79 84 85 83 84 82 86 93 93 93
95 100 100 100 100 100 100 100 100 98 91 82 76 75 72 74 68 62 59 72 94 98 93 84 85 80 77 75 71 71 74 75 75 72 78 83 83 84 83 81 81 85 88
100 99 100 100 100 100 100 100 100 100 99 89 79 79 73 73 74 67 61 56 57 94 96 87 80 66 69 75 70 73 74 73 75 74 72 76 80 83 83 81 82 80 84
86 99 99 99 100 100 99 100 100 100 100 97 90 81 78 70 76 74 68 63 58 56 66 67 62 60 58 62 63 68 70 74 72 72 74 74 77 81 82 83 79 81 80
100 90 91 94 99 100 100 100 100 100 100 100 97 92 82 76 76 79 75 70 68 63 64 61 64 60 65 62 63 63 69 73 78 76 77 77 76 77 83 84 82 80 78
100 100 100 100 100 100 99 100 100 100 100 100 100 96 89 85 80 82 80 79 74 70 66 67 71 72 68 65 64 65 68 70 72 69 72 76 77 78 82 85 84 84 81
91 97 100 100 100 100 100 100 98 98 98 99 100 100 96 93 90 85 86 84 80 76 74 69 71 76 75 72 80 83 77 75 75 73 75 80 80 81 83 84 90 86 85
73 70 77 90 93 98 99 100 100 100 100 95 97 100 99 99 99 96 96 90 87 87 84 80 76 81 80 82 81 82 96 97 91 92 87 89 89 90 92 85 96 92 91
75 74 68 74 92 89 90 99 99 100 100 100 100 98 94 99 94 93 97 99 96 94 93 91 84 84 90 89 94 87 94 91 97 98 100 99 100 100 96 96 100 98 96
71 73 75 66 70 72 76 77 86 99 100 100 100 100 100 100 100 97 98 97 97 97 96 94 93 91 91 90 89 91 97 100 98 98 100 100 100 99 98 99 96 98 98
58 55 61 58 53 57 61 66 65 74 83 98 100 100 100 100 100 100 100 100 98 98 92 95 97 97 93 92 88 97 100 96 96 92 100 100 100 100 100 99 100 99 100
43 58 58 52 50 45 45 48 63 69 71 76 86 100 100 100 100 100 100 100 100 100 100 99 100 96 94 92 89 86 91 99 99 97 98 99 100 99 100 100 100 100 100
54 51 55 62 52 44 38 37 45 60 68 73 83 85 99 99 99 100 100 100 100 100 100 100 100 99 100 96 95 100 100 100 100 100 100 100 100 100 99 100 100 99 99
55 53 58 67 60 52 49 38 35 44 64 74 82 98 100 100 100 100 100 100 100 98 99 100 100 100 100 100 100 99 99 99 99 100 99 98 99 98 98 99 100 100 100

GFSMA_925_rhum_237.txt.gz
RH
95 96 97 95 87 91 89 95 91 78 67 71 78 77 80 81 82 75 79 86 88 92 93 96 95 93 89 86 85 83 83 82 83 82 81 81 82 82 82 82 81 80 80
88 91 94 95 94 81 89 87 86 80 72 79 82 81 82 79 82 85 78 87 88 89 92 92 95 95 96 94 92 91 90 88 88 86 88 87 86 84 85 85 86 85 86
85 87 89 97 93 74 75 82 88 80 78 85 88 83 78 77 80 84 86 80 88 90 90 92 92 95 96 94 94 95 94 91 92 92 94 88 95 94 91 86 89 86 87
86 92 96 96 98 73 70 78 85 80 78 82 87 88 84 84 84 86 86 83 79 80 89 86 90 88 92 96 93 93 89 94 96 93 92 94 94 92 88 88 86 87 88
92 93 96 97 99 72 68 77 85 83 81 80 85 89 88 85 86 86 88 88 90 85 78 87 89 89 92 92 93 95 97 96 90 94 89 94 89 89 90 87 86 86 87
97 96 100 100 98 80 80 76 83 87 78 76 79 89 92 89 87 86 87 88 90 91 88 85 90 88 89 89 90 89 94 91 92 90 94 91 90 89 91 91 86 86 86
99 99 100 100 95 87 95 87 88 91 82 82 87 96 98 98 95 89 88 88 90 91 90 89 86 83 86 85 85 88 94 92 95 92 91 92 93 89 90 92 86 87 86
99 97 99 100 100 100 87 88 88 83 78 91 68 74 78 86 96 97 92 92 91 89 92 92 89 88 80 79 86 88 89 86 89 90 90 90 88 90 92 93 86 83 85
99 100 100 100 100 100 95 98 93 77 71 88 76 57 81 61 78 91 97 92 92 92 89 90 93 90 87 81 85 88 90 89 85 86 89 86 87 85 88 88 86 89 86
100 100 100 100 100 100 100 97 94 82 66 75 76 61 68 70 57 86 98 95 94 94 92 89 90 91 90 87 86 82 83 87 84 86 86 90 84 85 92 86 87 92 93
100 100 100 100 100 100 100 100 100 84 72 66 68 63 73 78 77 62 70 95 97 92 90 92 88 90 93 89 88 87 72 72 84 88 87 87 85 85 94 88 89 89 91
100 100 100 100 100 100 99 100 100 94 78 70 68 60 56 56 64 62 61 70 76 83 90 90 92 90 90 90 87 81 67 69 75 84 88 86 86 84 85 91 94 92 93
100 100 100 100 100 100 100 100 100 100 88 76 75 63 60 50 44 56 47 64 69 81 93 94 90 90 89 90 87 71 70 71 71 72 80 86 86 83 85 84 92 94 95
98 100 100 100 100 100 100 100 100 100 96 88 79 73 68 61 57 59 55 65 70 74 89 81 90 90 90 88 76 65 73 68 71 72 72 77 84 86 83 84 82 81 89
97 100 100 100 100 100 100 100 100 100 100 96 87 86 75 74 68 70 62 63 50 50 61 74 78 83 88 89 71 73 71 71 68 71 74 72 77 81 84 82 82 80 81
99 100 100 100 100 100 100 100 100 100 100 100 99 91 86 76 78 74 71 62 59 50 49 50 75 67 55 78 82 76 80 72 69 68 70 72 71 74 79 82 82 81 79
97 100 100 100 100 100 100 100 100 100 100 100 100 96 90 86 80 80 78 71 66 60 57 49 62 74 69 72 72 72 88 92 87 69 71 72 74 72 73 77 81 82 80
100 100 100 100 100 100 100 99 98 100 100 100 100 100 96 92 90 81 84 81 72 68 63 61 75 82 71 62 70 73 69 78 76 70 68 77 75 74 74 76 79 82 83
100 100 100 100 100 97 99 100 100 100 100 100 100 100 99 97 96 90 89 88 83 77 75 69 67 88 83 87 87 91 94 93 86 79 72 70 77 82 80 78 79 83 84
86 89 100 99 99 100 100 100 100 100 100 100 99 100 99 99 99 99 96 93 92 90 85 84 79 83 90 94 97 97 100 98 91 90 77 81 83 85 90 88 86 84 88
86 90 91 93 98 100 99 100 100 100 100 100 100 100 100 100 96 92 98 100 100 99 99 98 96 89 92 95 98 95 96 95 90 93 90 89 89 99 94 93 95 93 93
83 77 82 85 72 82 86 88 98 99 100 100 100 100 100 100 98 96 89 96 95 100 99 99 94 93 96 90 90 91 94 100 98 96 99 98 94 96 93 89 86 95 97
50 64 80 71 61 64 60 55 55 71 87 99 100 100 100 100 100 100 100 95 95 99 96 97 97 96 92 96 98 97 99 94 90 86 99 100 99 100 100 100 97 94 96
62 62 54 69 67 52 44 45 51 47 58 75 84 96 100 100 100 100 100 100 100 100 100 98 100 97 95 92 93 92 87 95 100 93 96 99 99 99 99 100 100 98 100
55 52 58 57 59 64 47 39 38 40 45 59 73 78 79 90 99 100 100 100 100 100 99 100 98 100 99 96 91 98 100 100 100 99 99 100 99 99 98 98 98 99 100
67 62 49 47 50 54 58 54 42 42 44 42 39 63 87 91 83 100 100 100 100 98 99 100 100 100 100 100 100 98 98 99 99 100 98 100 100 99 99 99 100 100 100

GFSMA_925_rhum_243.txt.gz
RH
78 74 78 71 69 69 67 69 68 66 62 58 57 56 53 42 41 47 72 78 77 76 76 73 72 72 74 74 73 73 73 77 76 76 75 75 76 74 73 75 75 74 75
77 74 80 66 64 64 63 68 61 61 62 59 59 59 53 48 48 50 66 86 83 81 81 76 78 76 76 77 76 78 80 79 76 81 78 77 76 75 74 74 75 76 77
76 72 76 65 64 63 59 60 58 61 62 60 60 62 55 54 51 52 63 73 85 83 86 84 83 82 82 82 81 82 82 82 81 83 81 81 80 79 78 79 79 79 80
75 72 73 66 67 64 60 58 60 63 62 58 58 60 56 56 56 54 56 63 71 74 87 89 88 89 91 91 89 87 85 86 85 86 84 84 84 84 83 83 82 81 80
74 74 72 68 71 69 64 60 64 64 60 56 55 56 55 53 59 57 51 57 63 63 73 88 91 90 92 94 95 90 94 92 92 92 89 84 83 85 80 80 81 83 80
74 76 69 72 77 74 68 64 65 62 56 55 50 54 56 53 56 56 57 55 57 58 63 84 91 89 88 86 97 94 93 91 92 94 96 96 96 92 88 82 84 83 81
77 77 67 74 81 73 68 66 68 63 58 56 50 54 58 57 54 55 57 60 57 60 59 74 77 72 86 85 88 93 89 95 94 91 96 96 94 93 87 83 86 82 88
78 74 68 73 86 78 70 69 72 69 61 60 53 53 57 58 60 60 56 58 59 62 62 63 66 62 72 82 86 88 93 97 92 93 95 93 94 95 92 86 85 84 86
79 73 74 70 92 82 80 77 78 72 66 64 53 48 53 54 56 60 62 56 58 63 61 64 65 62 61 70 75 86 91 89 89 93 94 91 87 96 94 95 90 96 93
79 78 76 71 96 89 88 82 78 68 54 63 62 50 42 38 48 52 61 61 59 65 63 62 66 66 62 61 67 78 75 82 87 87 88 92 90 97 97 92 93 95 93
77 80 79 77 96 94 94 92 84 70 56 63 65 61 51 46 43 41 54 60 62 62 64 65 61 68 66 65 61 66 69 68 84 87 82 87 85 90 94 95 95 96 96
80 83 84 86 93 94 99 86 72 59 67 66 74 68 57 49 43 44 42 53 58 60 62 65 66 63 66 68 65 63 67 68 68 82 83 86 85 85 82 89 93 95 96
86 91 89 94 96 94 98 90 78 76 69 67 70 65 64 52 42 42 38 42 51 51 57 60 65 66 63 66 68 65 66 68 66 66 77 83 83 85 84 81 86 94 94
87 92 97 97 98 97 97 93 86 82 80 80 77 81 66 59 48 42 39 37 51 48 52 57 60 62 65 62 65 66 69 71 70 65 64 74 81 84 85 82 80 81 86
82 96 99 99 100 99 98 98 93 91 90 89 83 77 68 60 56 48 43 43 38 50 51 58 58 61 63 64 63 66 69 71 72 72 67 62 68 76 82 83 83 81 80
77 94 100 100 100 100 100 98 95 93 94 91 85 79 73 67 60 56 52 47 45 41 48 46 60 55 64 62 65 67 73 73 74 74 74 68 64 72 78 80 81 83 82
78 86 97 100 100 100 100 100 98 96 98 94 91 87 79 75 68 63 58 54 50 47 47 42 44 55 64 65 59 65 72 77 80 80 78 76 70 67 72 78 80 82 85
98 84 97 100 100 100 100 100 100 100 100 99 98 97 88 81 78 70 69 64 58 58 53 55 50 55 61 70 67 64 75 78 79 80 79 79 78 74 70 72 75 78 82
100 100 100 100 100 100 100 100 100 100 100 98 100 100 98 94 90 86 78 75 69 67 66 62 63 63 64 68 76 74 80 80 79 80 77 76 78 80 79 75 74 74 76
100 100 100 99 99 100 100 100 100 100 100 100 100 100 100 100 95 94 86 86 81 81 78 73 73 74 69 71 77 84 85 86 88 80 77 78 80 83 84 84 81 80 80
99 100 100 96 96 97 99 100 100 100 100 100 100 100 100 100 99 98 96 93 92 93 92 88 83 82 84 93 90 88 89 92 94 91 84 82 80 79 77 78 78 85 84
99 98 100 100 95 93 93 99 100 100 100 100 100 100 100 100 100 99 100 98 98 97 97 95 91 90 94 95 97 91 96 99 99 97 95 98 96 89 80 76 73 74 72
99 95 96 96 100 91 91 89 95 100 99 100 100 100 100 97 100 96 100 100 100 98 94 95 94 95 93 93 92 96 97 94 92 84 89 100 99 100 96 94 88 85 81
100 100 92 89 86 88 84 82 83 87 90 96 98 100 99 100 100 100 100 100 100 100 100 96 95 93 92 91 92 89 90 94 97 97 92 100 97 98 88 87 86 90 87
100 99 92 97 77 75 77 81 80 77 79 66 62 76 93 100 99 100 100 100 100 100 100 100 98 98 93 97 98 100 100 100 100 98 99 100 98 98 97 90 94 94 89
100 99 99 98 90 73 64 63 81 76 68 80 65 50 52 69 83 96 98 100 100 99 100 100 100 100 100 100 100 99 96 99 99 100 96 100 99 100 97 94 91 91 91

GFSMA_925_rhum_246.txt.gz
RH
85 85 96 93 91 83 81 83 68 57 64 57 52 54 51 47 54 61 70 77 72 71 73 70 69 74 72 71 69 72 75 77 74 75 74 75 75 77 75 75 74 78 78
83 82 92 90 88 75 78 80 71 66 66 59 55 57 52 47 52 58 66 79 75 74 78 73 73 72 73 72 73 74 75 78 80 80 80 79 77 75 75 76 75 75 79
82 79 84 80 78 67 74 75 71 70 66 61 58 59 53 48 49 61 64 76 78 77 81 76 73 75 79 78 78 77 81 82 80 84 83 79 78 77 76 76 76 77 77
83 79 80 73 72 63 70 72 70 66 63 62 61 61 55 52 51 62 66 73 80 81 82 81 80 79 79 82 83 85 86 86 85 88 87 82 83 81 80 80 81 80 76
82 80 81 71 68 63 68 65 66 65 64 62 61 62 58 55 54 57 60 69 74 79 81 85 84 85 87 88 88 89 90 89 88 90 88 84 82 82 83 84 84 79 79
83 79 80 71 68 68 66 62 65 65 65 61 60 61 58 55 58 56 58 62 63 70 72 78 89 90 92 94 95 93 87 88 92 92 92 87 86 85 84 81 77 79 77
82 79 78 73 72 71 66 62 67 67 65 60 55 58 58 55 59 58 56 56 62 64 67 71 70 89 92 93 96 97 91 98 92 95 98 86 75 76 72 75 78 79 78
82 81 78 76 75 74 69 68 70 71 67 59 60 63 81 65 58 57 58 61 57 58 66 67 68 68 76 78 81 94 92 94 94 95 97 95 86 80 80 78 80 81 78
84 83 76 78 80 78 74 70 71 68 65 62 57 59 82 83 67 61 59 60 60 61 60 72 70 67 74 67 60 79 86 90 92 93 95 92 92 88 80 79 86 89 89
86 82 78 78 86 82 76 73 74 70 64 66 59 54 50 49 75 84 62 63 60 62 64 63 67 66 68 70 67 52 62 82 91 89 92 92 93 96 93 86 95 96 97
84 81 81 75 87 86 76 76 78 73 64 66 64 58 49 46 45 58 84 68 64 65 64 64 66 66 64 68 68 64 61 59 84 86 88 91 87 89 92 95 95 96 97
86 84 79 74 86 89 81 80 80 76 70 69 64 59 55 52 55 54 68 70 66 65 68 67 65 66 66 64 65 67 64 62 61 84 88 88 87 85 87 91 96 97 99
80 87 82 82 85 93 87 88 88 80 71 66 64 59 55 49 43 45 46 63 68 64 65 67 68 65 68 68 68 65 68 63 63 63 80 86 85 84 84 84 84 94 96
76 83 86 82 82 97 95 93 94 86 75 70 68 62 48 52 56 47 44 48 73 66 63 64 67 69 65 69 69 69 63 64 64 66 63 74 83 84 85 85 82 83 92
78 80 88 86 85 99 100 100 98 94 84 74 70 61 67 66 68 62 54 46 46 72 68 63 61 65 70 68 66 69 68 63 65 66 67 63 73 84 85 83 83 82 82
94 83 90 91 91 98 100 100 99 96 90 83 74 72 68 68 73 69 59 50 46 53 66 54 62 58 64 69 67 66 67 67 67 67 68 70 67 71 80 83 85 85 83
97 100 90 90 92 100 100 100 99 97 92 86 81 77 77 75 78 74 66 58 52 49 50 47 53 57 58 65 66 67 65 66 68 70 70 71 72 71 67 76 82 81 83
99 100 100 94 87 100 100 100 99 98 96 90 85 82 82 81 79 74 68 63 59 55 51 49 46 61 62 63 65 64 66 68 70 69 72 75 75 75 75 70 74 76 78
100 99 100 99 100 98 100 100 99 99 98 96 90 88 85 85 83 80 73 68 66 59 58 53 52 58 65 65 66 64 64 68 74 74 75 78 78 80 79 80 73 71 76
100 97 100 95 96 96 100 100 100 99 99 99 97 94 91 91 87 84 81 75 73 69 65 69 61 59 60 70 69 72 79 75 75 78 80 80 80 79 80 81 81 79 74
94 98 94 100 97 98 96 98 100 100 99 100 98 100 97 96 92 87 86 84 83 78 77 75 76 71 72 75 78 84 80 84 85 81 80 79 77 80 80 81 82 83 85
90 91 93 99 100 99 98 99 100 100 100 100 100 100 100 100 100 96 91 90 86 87 82 82 80 82 82 80 78 88 88 95 100 93 87 82 78 78 75 75 72 76 80
99 91 95 95 98 100 95 92 99 100 99 100 100 100 100 100 100 100 99 96 94 94 88 90 89 88 87 85 84 91 96 93 91 89 95 100 93 90 83 76 74 78 81
99 100 99 99 93 97 96 93 92 98 96 97 100 100 100 99 100 99 100 100 100 100 100 99 99 95 95 88 86 86 88 92 96 91 93 100 98 98 93 87 86 82 87
100 100 100 100 100 99 95 96 96 94 93 93 98 87 99 100 100 100 100 100 100 100 97 100 98 99 98 96 91 92 99 100 100 99 99 100 98 97 97 92 87 92 94
99 92 99 98 99 99 100 100 98 90 93 93 92 95 91 70 85 92 100 100 100 100 100 100 100 100 100 100 100 97 99 98 100 100 97 100 99 99 98 98 94 92 91